Find Starlink 2400

NORAD ID: 47817 Int'l Des: 2021-018 Owner: SPXS Country: US Constellation: starlink operational
LEOCIRCULAR

当前视图

正在加载3D地球...

关于 Starlink 2400

正在加载描述...

即将过境

Passes for default location (London). Set your location on the main map for personalized predictions.

高度历史

Loading altitude history...

两行轨道根数

1 47817U 21018AG 26150.60077095 .00002972 00000-0 10752-3 0 9995
2 47817 53.1598 222.1313 0001750 87.3550 272.7652 15.31697833289269
Epoch: May 30, 2026 • Age: 26 hours

当前状态

高度 475.7 km
速度 7.63 km/s
星下点 51.36°N, 159.58°W
发射日期 Mar 11, 2021
运行时间 5.2 years
类型 internet

技术详情

分类 Payload
质量 260.00 kg
干质量 248.00 kg
总质量 260.00 kg
长度 0.20 m
直径 2.80 m
跨度 9.00 m
形状 Box + pan
制造商 SPXS
平台类型 Starlink
阶段状态 In Orbit
所有者/国家 SPXS/US

Most Searched